Regional Weather Roundup
Issued by NWS

Home | Current Version | Previous Version | Text Only | Print | Product List | Glossary Off
Versions: 1 2 3 4 5 6 7 8 9 10 11 12 13 14 15 16 17 18 19 20 21 22 23 24 25 26 27 28 29 30 31 32 33 34 35 36 37 38 39 40 41 42 43 44 45 46 47 48 49 50

000
ASUS45 KABQ 261210
RWRNM
WEATHER ROUNDUP FOR NEW MEXICO
NATIONAL WEATHER SERVICE ALBUQUERQUE NM
500 AM MST WED NOV 26 2014

NOTE: "FAIR" MEANS FEW OR NO CLOUDS BELOW 12,000 FEET AGL WITH NO
       SIGNIFICANT WEATHER OR OBSTRUCTIONS TO VISION.

      THIS PRODUCT IS RELEASED AS TWO VERSIONS.  ONE VERSION NEAR
      THE TOP OF THE HOUR CONTAINING PRELIMINARY DATA FROM ALBUQUERQUE
      AND OTHER STATIONS.  A FINAL VERSION WITH ADDITIONAL DATA IS
      ISSUED ABOUT 10 MINUTES AFTER THE HOUR.

NMZ501-503-504-510>518-261300-
NORTHWEST PLATEAU/NORTHCENTRAL MOUNTAINS

CITY           SKY/WX    TMP DP  RH WIND       PRES   REMARKS
FARMINGTON     CLEAR     29   7  39 W6        30.33R WCI  23
6HR MIN TEMP:  25; 6HR MAX TEMP:  32;

LOS ALAMOS     PTCLDY    30  14  51 CALM      30.29S
SANTA FE       CLEAR     35  15  44 N17       30.26R WCI  25
6HR MIN TEMP:  32; 6HR MAX TEMP:  36;

TAOS           PTCLDY    12   7  79 N6        30.29S WCI   3
ANGEL FIRE     FAIR      25  15  67 SW8       30.27R WCI  16

$$
NMZ402-403-502-505>509-261300-
WESTCENTRAL MOUNTAINS/SOUTHWEST MOUNTAINS

CITY           SKY/WX    TMP DP  RH WIND       PRES   REMARKS
GALLUP         CLEAR     19   1  45 W6        30.38S WCI  11
6HR MIN TEMP:  18; 6HR MAX TEMP:  26;

GRANTS         PTCLDY    21   7  53 SE3       30.38S
SILVER CITY    CLEAR     34  10  37 N10       30.34S WCI  26

$$
NMZ407-409-411-412-261300-
SOUTHERN DESERTS

CITY           SKY/WX    TMP DP  RH WIND       PRES   REMARKS
LORDSBURG      FAIR      28   1  31 W9        30.33S WCI  20
DEMING         MOCLDY    27   3  35 CALM      30.33R
6HR MIN TEMP:  27; 6HR MAX TEMP:  37;

LAS CRUCES     PTCLDY    34   3  27 NE8       30.33R WCI  27
HOLLOMAN AFB   MOCLDY    29   8  41 E5        30.29R WCI  23
ALAMOGORDO     PTCLDY    27   5  39 MISG      30.30R
T OR C         CLEAR     34   8  33 NW9       30.31S WCI  27
6HR MIN TEMP:  31; 6HR MAX TEMP:  38;


$$
NMZ519>523-261300-
CENTRAL VALLEYS/CENTRAL HIGHLANDS

CITY           SKY/WX    TMP DP  RH WIND       PRES   REMARKS
ALBUQUERQUE    PTCLDY    30   7  37 SE5       30.33S WCI  25
6HR MIN TEMP:  29; 6HR MAX TEMP:  41;

MORIARTY ARPT  FAIR      31  12  46 S3        30.30R
6HR MIN TEMP:  28; 6HR MAX TEMP:  42;

CLINES CORNERS PTCLDY    30  10  43 W16       30.25R WCI  19
6HR MIN TEMP:  29; 6HR MAX TEMP:  32;

BELEN          FAIR      22   3  43 CALM      30.34S
6HR MIN TEMP:  20; 6HR MAX TEMP:  35;

SOCORRO        FAIR      32   5  32 NW9       30.33S WCI  24
6HR MIN TEMP:  28; 6HR MAX TEMP:  37;


$$
NMZ524>526-539-540-261300-
SOUTHCENTRAL MOUNTAINS

CITY           SKY/WX    TMP DP  RH WIND       PRES   REMARKS
RUIDOSO        CLEAR     39  16  38 NW10G29   30.30R WCI  32

$$
NMZ527>531-261300-
NORTHEAST HIGHLANDS/NORTHEAST PLAINS

CITY           SKY/WX    TMP DP  RH WIND       PRES   REMARKS
LAS VEGAS      MOCLDY    33  18  53 E5        30.18R WCI  29
6HR MIN TEMP:  27; 6HR MAX TEMP:  33;

RATON          CLEAR     26  19  74 E10       30.14R WCI  16
6HR MIN TEMP:  24; 6HR MAX TEMP:  35;

CLAYTON        PTCLDY    28  25  88 N17       30.17S WCI  16
6HR MIN TEMP:  28; 6HR MAX TEMP:  37;


$$
NMZ532>537-261300-
EASTCENTRAL PLAINS

CITY           SKY/WX    TMP DP  RH WIND       PRES   REMARKS
TUCUMCARI      PTCLDY    35  22  58 NE14      30.17R WCI  26
6HR MIN TEMP:  35; 6HR MAX TEMP:  44;

CANNON AFB     PTCLDY    41  18  39 NW12      30.13R
6HR MIN TEMP:  41; 6HR MAX TEMP:  46;

CLOVIS AIRPORT PTCLDY    39  18  41 NW13      30.11R WCI  32

$$
NMZ028-029-538-261300-
SOUTHEAST PLAINS

CITY           SKY/WX    TMP DP  RH WIND       PRES   REMARKS
ROSWELL        PTCLDY    32  17  54 SE5       30.17R WCI  27
6HR MIN TEMP:  29; 6HR MAX TEMP:  36;

CARLSBAD       CLEAR     37  16  42 CALM      30.17R
6HR MIN TEMP:  33; 6HR MAX TEMP:  52;

HOBBS          CLEAR     41  10  28 W9        30.17R


$$


USA.gov is the U.S. government's official web portal to all federal, state and local government web resources and services.